Location: Hope
(40.9110°N, 74.9680°W)
Time: 13:09:14
(UTC-05:00)

FORTE - Pass Details

Date: 11 December 2021
Orbit: 785 x 822 km, 70.0° (Epoch: 22 January)

Event Time Altitude Azimuth Distance (km) Brightness Sun altitude
Exits shadow 06:24:42 11° 283° (WNW) 2,281 8.8 -9.3°
Maximum altitude 06:27:22 15° 314° (NW) 2,029 8.6 -8.8°
Drops below altitude 10° 06:30:26 10° 349° (NNW) 2,374 9.2 -8.3°
Sets 06:33:59 0° 12° (NNE) 3,317 10.2 -7.7°
